Location: Huntsville
(41.2590°N, 111.7678°W)
Time: 08:11:12
(UTC+00:00)

Vanguard 3 - Pass Details

Date: 19 June 2021
Orbit: 508 x 3261 km, 33.4° (Epoch: 29 July)

Event Time Altitude Azimuth Distance (km) Brightness Sun altitude
Rises 17:34:10 0° 259° (W) 2,834 9.7 60.2°
Reaches altitude 10° 17:36:15 10° 249° (WSW) 2,090 9.2 60.6°
Maximum altitude 17:40:33 35° 183° (S) 1,377 9.1 61.3°
Drops below altitude 10° 17:47:13 10° 121° (ESE) 3,268 10.9 62.3°
Sets 17:51:18 0° 114° (ESE) 4,726 11.5 63.0°
